Location: Brno
(49.2000°N, 16.6330°E)
Time: 15:02:38
(UTC+01:00)

RESURS DK-1 - Visible Passes

Search period start: 01 November 2014 00:00
Search period end: 11 November 2014 00:00
Orbit: 560 x 567 km, 69.9° (Epoch: 01 November)

Date Brightness Start Highest point End Pass type
(mag) Time Alt. Az. Time Alt. Az. Time Alt. Az.
08 Nov 5.2 04:51:16 10° NNE 04:52:29 11° NNE 04:53:43 10° NE visible
09 Nov 5.1 04:50:25 10° N 04:52:30 13° NE 04:54:34 10° ENE visible
10 Nov 5.0 04:49:50 10° N 04:52:29 16° NE 04:55:08 10° E visible
